Vorticity
3 4 4 4 5 2 4 3 6 7 5 3 2 2 7 8 23 22 17 11 1 10 7 9 20 11 13 17 13 6 5 -2 11 2 -12 -2 8 9 8 6 14 -5 -1 9 18
2 3 3 3 3 4 4 5 4 5 6 2 2 2 2 19 26 23 7 -0 15 11 13 17 21 11 15 9 11 -1 22 8 2 -8 18 -9 -8 2 16 10 41 17 5 32 21
3 4 5 4 4 5 4 6 5 4 5 2 4 5 14 23 17 12 9 4 10 12 25 18 10 10 29 3 11 12 8 7 3 -5 1 1 10 4 5 15 -10 18 19 -9 15
3 5 5 5 5 4 4 6 6 5 3 3 5 5 12 20 16 13 10 6 15 9 3 17 20 18 20 -3 7 4 13 19 -1 17 -3 19 15 14 9 24 10 8 -2 11 78
5 6 5 5 4 5 5 7 7 5 2 3 5 13 1 22 4 7 10 15 18 6 9 6 6 6 9 9 7 -3 12 -19 10 2 -4 8 -1 18 -3 16 12 23 16 2 -1
5 5 5 5 5 5 6 5 8 6 2 4 4 10 3 20 16 10 16 14 15 13 7 11 16 10 14 10 -1 4 12 -22 12 5 -7 -8 4 6 5 44 21 11 -23 27 5
6 5 6 5 6 3 7 5 8 6 2 4 4 10 4 13 9 17 13 -1 9 10 6 3 6 43 8 25 -16 9 25 2 2 4 7 -0 21 16 19 15 14 6 15 21 3
6 6 8 6 7 6 7 5 8 4 3 5 5 11 5 14 8 15 20 10 16 18 6 3 7 26 19 24 -19 -6 18 -2 -5 2 8 13 2 12 10 4 6 10 9 9 8
4 6 7 7 8 6 7 6 8 2 2 5 5 12 4 12 4 10 8 10 1 29 16 6 19 18 7 10 9 4 13 7 15 15 29 22 0 -4 6 12 7 4 8 9 8
6 6 6 8 9 5 10 9 7 2 3 6 4 8 6 8 8 8 3 5 5 13 18 13 14 7 16 8 4 19 10 20 -8 -9 19 -5 14 -2 14 6 8 8 7 7 7
5 8 10 4 9 9 8 9 2 4 3 6 4 9 6 5 11 3 6 17 14 12 10 9 12 20 6 2 18 37 52 1 7 11 -5 8 6 -0 12 2 11 14 -5 9 8
9 10 11 11 8 7 4 7 5 4 2 3 3 6 7 3 13 10 6 15 15 9 8 8 11 9 11 15 4 6 12 11 -5 -2 11 3 -2 2 8 4 6 10 11 9 4
6 10 11 7 8 8 8 3 3 0 2 5 2 4 8 7 11 11 11 17 1 7 23 15 12 7 2 10 -14 10 8 4 -1 -3 7 4 6 8 3 -6 3 10 13 7 5
7 10 7 5 8 9 5 6 -1 6 3 7 2 7 7 8 18 11 13 12 -7 12 9 -2 16 18 7 8 -3 13 5 1 1 1 13 5 -1 6 10 3 -4 -8 6 15 9
7 7 16 9 13 7 6 3 3 7 -1 7 4 7 4 15 15 16 9 13 -7 9 3 23 16 27 -2 7 -8 2 19 1 5 -0 17 8 6 -12 9 7 12 25 -0 14 7
8 9 10 13 10 6 11 3 4 4 5 3 2 3 7 11 16 9 14 12 2 10 18 18 -2 2 11 8 8 1 11 5 3 9 -8 3 1 -3 1 46 9 13 32 5 4
10 10 6 13 8 9 3 7 5 2 -0 8 6 5 7 18 14 7 14 12 -0 5 6 2 16 1 9 4 -1 3 -0 -1 2 -0 1 6 4 -0 20 10 8 8 7 9 5
14 10 11 5 12 12 6 12 8 -1 2 5 4 0 5 16 12 11 9 17 5 -3 -5 9 12 4 8 11 0 19 5 10 5 9 22 22 11 -9 -2 -2 1 5 8 10 10
7 7 4 6 10 6 12 4 4 -0 4 6 8 4 4 19 10 13 12 17 11 2 -5 10 3 9 4 1 1 -1 4 13 3 7 19 34 10 17 -3 3 7 5 11 6 5
-1 7 11 7 5 7 8 9 6 8 2 3 6 3 5 21 10 16 14 16 10 1 -0 -1 7 5 -4 7 -1 8 9 10 9 5 1 8 10 8 7 8 6 4 -1 5 4
7 1 12 6 3 14 3 0 4 8 7 5 3 2 8 11 10 12 13 11 13 11 13 2 10 8 -6 35 28 16 11 5 0 4 5 4 17 10 5 4 5 2 5 3 4
8 7 8 1 14 5 4 4 -5 12 4 4 3 2 3 15 10 7 -1 8 12 5 -0 23 -8 3 17 11 13 6 5 7 8 7 11 9 11 3 3 3 3 3 6 4 3
5 10 7 2 11 6 2 5 5 6 6 4 3 4 16 12 10 5 6 11 10 11 3 4 10 22 13 -3 4 8 5 8 7 3 7 7 6 16 16 15 10 5 5 8 4
7 7 11 7 -1 12 18 5 5 5 9 6 4 3 10 13 7 -3 7 7 6 5 6 8 6 6 8 6 7 4 8 7 6 6 8 11 11 10 12 6 2 4 4 9 14
4 -4 6 11 -7 5 5 4 1 5 9 4 3 3 16 13 7 -1 -7 5 4 1 3 5 7 5 5 5 5 2 2 11 10 9 17 22 10 9 5 3 4 4 3 4 6
3 2 5 10 13 8 9 10 5 15 3 5 5 8 12 9 3 4 9 7 8 4 10 2 1 1 0 3 4 5 6 10 19 2 -16 12 8 9 6 4 3 4 5 5 5
4 5 8 13 8 7 12 12 1 13 3 6 7 3 12 6 4 6 -0 2 8 4 3 4 6 14 12 12 11 10 17 12 12 6 12 8 5 6 6 6 4 3 3 3 2
Height
5835 5835 5835 5835 5834 5833 5832 5831 5828 5826 5822 5818 5812 5805 5799 5792 5785 5780 5777 5775 5774 5772 5770 5769 5767 5768 5768 5770 5770 5772 5780 5787 5786 5786 5786 5788 5789 5791 5791 5792 5793 5791 5795 5798 5797
5829 5829 5829 5830 5828 5828 5827 5826 5824 5821 5818 5813 5808 5802 5795 5788 5782 5777 5776 5774 5771 5769 5767 5766 5765 5766 5766 5768 5770 5774 5780 5784 5784 5784 5784 5787 5787 5788 5788 5789 5789 5792 5792 5793 5793
5822 5823 5823 5824 5823 5823 5822 5821 5819 5817 5814 5810 5805 5798 5791 5784 5780 5775 5774 5772 5770 5767 5765 5764 5764 5766 5767 5770 5772 5776 5779 5780 5782 5783 5785 5786 5785 5785 5783 5784 5786 5790 5792 5789 5787
5815 5816 5817 5817 5817 5817 5817 5816 5815 5812 5810 5806 5801 5795 5788 5782 5779 5775 5773 5770 5769 5767 5766 5764 5764 5765 5768 5771 5772 5775 5776 5778 5779 5782 5785 5784 5784 5783 5781 5784 5784 5786 5788 5786 5782
5807 5809 5810 5811 5812 5812 5812 5812 5810 5808 5806 5803 5798 5792 5786 5780 5776 5774 5771 5768 5768 5767 5766 5765 5764 5764 5763 5765 5767 5772 5775 5777 5781 5781 5785 5784 5782 5782 5780 5782 5783 5785 5785 5787 5782
5799 5801 5803 5804 5805 5806 5806 5807 5805 5804 5802 5800 5795 5789 5784 5778 5773 5771 5769 5768 5767 5766 5765 5764 5764 5765 5764 5765 5769 5771 5773 5777 5779 5781 5782 5783 5782 5784 5782 5781 5782 5783 5782 5782 5783
5791 5793 5796 5797 5798 5799 5800 5801 5800 5800 5799 5796 5791 5786 5782 5778 5773 5771 5768 5768 5766 5765 5764 5764 5764 5764 5766 5767 5766 5770 5772 5774 5779 5778 5784 5784 5784 5782 5782 5781 5780 5781 5782 5782 5784
5782 5785 5788 5790 5792 5793 5795 5795 5794 5795 5794 5792 5788 5783 5779 5776 5773 5770 5767 5766 5764 5762 5761 5762 5763 5766 5767 5769 5771 5773 5775 5776 5779 5780 5782 5782 5784 5783 5783 5782 5783 5782 5784 5786 5788
5772 5776 5779 5782 5785 5787 5788 5789 5789 5790 5789 5787 5785 5780 5777 5774 5771 5770 5766 5765 5763 5760 5759 5760 5761 5763 5767 5769 5771 5774 5776 5778 5779 5780 5780 5781 5784 5785 5787 5787 5785 5786 5785 5788 5791
5761 5766 5770 5774 5777 5780 5782 5783 5784 5785 5784 5783 5781 5779 5775 5772 5769 5768 5765 5765 5765 5761 5759 5760 5762 5764 5766 5769 5770 5773 5776 5777 5778 5779 5780 5781 5784 5784 5786 5788 5786 5784 5782 5785 5789
5750 5754 5758 5763 5767 5772 5775 5777 5779 5780 5779 5779 5777 5774 5771 5769 5767 5766 5764 5764 5763 5761 5760 5762 5763 5763 5765 5767 5769 5770 5773 5774 5776 5776 5779 5783 5784 5784 5785 5785 5783 5783 5783 5784 5785
5740 5744 5748 5753 5759 5763 5768 5769 5772 5773 5774 5774 5772 5770 5768 5766 5764 5764 5762 5764 5762 5761 5761 5764 5763 5764 5764 5768 5768 5771 5774 5774 5776 5777 5778 5780 5782 5781 5782 5783 5783 5785 5785 5785 5785
5729 5734 5738 5743 5749 5755 5759 5762 5767 5767 5768 5768 5767 5766 5764 5763 5761 5761 5761 5762 5763 5762 5760 5763 5764 5765 5765 5766 5769 5771 5773 5773 5775 5777 5777 5778 5780 5780 5781 5781 5781 5784 5786 5786 5785
5719 5725 5729 5735 5742 5746 5750 5756 5759 5759 5761 5764 5763 5762 5761 5759 5757 5757 5757 5761 5761 5762 5760 5762 5764 5764 5765 5767 5770 5772 5774 5774 5775 5777 5778 5779 5780 5781 5781 5780 5781 5782 5785 5787 5787
5707 5714 5718 5726 5732 5737 5743 5748 5751 5754 5754 5759 5758 5758 5756 5756 5754 5755 5755 5758 5759 5759 5760 5762 5762 5764 5765 5768 5770 5772 5773 5773 5775 5776 5778 5779 5778 5779 5779 5778 5782 5782 5783 5783 5785
5695 5703 5709 5717 5719 5726 5735 5741 5745 5748 5749 5753 5752 5753 5752 5751 5751 5750 5752 5756 5757 5758 5760 5760 5762 5765 5766 5768 5769 5770 5771 5772 5772 5775 5776 5775 5776 5777 5777 5777 5780 5778 5779 5779 5779
5683 5692 5700 5704 5710 5718 5727 5732 5736 5736 5745 5748 5749 5748 5748 5747 5746 5746 5749 5753 5755 5758 5759 5760 5762 5765 5766 5767 5768 5768 5769 5771 5772 5771 5772 5772 5772 5775 5776 5777 5778 5776 5775 5774 5773
5670 5678 5687 5694 5698 5708 5715 5723 5725 5733 5738 5740 5743 5744 5744 5743 5744 5743 5745 5748 5750 5753 5755 5757 5760 5762 5764 5766 5765 5764 5767 5768 5768 5769 5771 5770 5771 5773 5774 5773 5774 5773 5772 5771 5770
5654 5665 5675 5682 5687 5696 5704 5711 5716 5728 5733 5735 5735 5737 5738 5739 5740 5740 5743 5746 5747 5749 5753 5754 5756 5760 5761 5763 5764 5764 5764 5765 5764 5766 5768 5767 5767 5767 5770 5770 5771 5771 5769 5769 5769
5641 5651 5665 5668 5676 5684 5693 5702 5708 5722 5722 5725 5728 5732 5733 5735 5736 5736 5739 5744 5744 5745 5748 5751 5753 5756 5758 5758 5761 5761 5761 5761 5762 5763 5764 5764 5763 5763 5765 5766 5766 5767 5767 5767 5767
5625 5636 5652 5653 5662 5672 5682 5691 5704 5712 5715 5719 5723 5726 5729 5730 5732 5733 5737 5739 5740 5742 5743 5746 5751 5754 5755 5754 5754 5757 5758 5758 5758 5759 5759 5759 5759 5759 5759 5760 5761 5762 5763 5764 5764
5609 5622 5636 5636 5646 5661 5672 5684 5698 5701 5706 5710 5715 5720 5724 5725 5727 5729 5733 5735 5736 5739 5742 5745 5747 5747 5752 5750 5751 5752 5754 5754 5754 5756 5755 5755 5757 5755 5754 5754 5754 5755 5759 5761 5761
5592 5607 5614 5621 5635 5653 5664 5673 5687 5690 5697 5703 5709 5714 5718 5719 5722 5725 5727 5731 5733 5734 5737 5741 5742 5744 5746 5747 5748 5749 5749 5749 5749 5750 5750 5750 5752 5750 5750 5749 5747 5748 5750 5753 5753
5573 5580 5596 5607 5634 5645 5655 5666 5678 5684 5689 5695 5702 5707 5712 5713 5717 5720 5724 5726 5730 5732 5734 5738 5738 5740 5742 5744 5743 5742 5744 5744 5743 5744 5744 5746 5745 5744 5745 5743 5742 5744 5744 5746 5747
5542 5562 5590 5601 5617 5633 5642 5654 5668 5670 5679 5685 5693 5701 5706 5708 5712 5716 5720 5722 5725 5728 5730 5732 5734 5735 5737 5738 5738 5737 5739 5741 5739 5740 5739 5742 5739 5740 5738 5738 5738 5740 5739 5739 5738
5525 5553 5578 5598 5614 5626 5635 5646 5656 5665 5673 5679 5689 5696 5701 5703 5707 5713 5716 5718 5721 5725 5726 5727 5728 5730 5731 5732 5732 5732 5732 5735 5734 5733 5733 5734 5733 5733 5732 5732 5734 5735 5733 5730 5727
5511 5543 5566 5584 5598 5609 5626 5640 5652 5659 5666 5673 5683 5689 5695 5699 5702 5707 5713 5715 5718 5720 5722 5722 5723 5723 5724 5724 5723 5724 5729 5727 5727 5726 5726 5727 5728 5729 5729 5729 5728 5726 5724 5722 5720